Weather History for Osceola Municipal, IA

Change the Weather History Date:

Saturday, April 19, 2014

  Actual Average (KLWD) Record (KLWD)
Temperature  
Mean Temperature 60 °F 53 °F  
Max Temperature 76 °F 63 °F 85 °F (1987)
Min Temperature 44 °F 42 °F 26 °F (1949)
Degree Days  
Heating Degree Days 6 12  
Month to date heating degree days 288  
Since 1 July heating degree days 5777  
Cooling Degree Days 0 0  
Month to date cooling degree days 0  
Year to date cooling degree days 1  
Growing Degree Days 10 (Base 50)    
Moisture  
Dew Point 39 °F    
Average Humidity 48    
Maximum Humidity 69    
Minimum Humidity 28    
Precipitation  
Precipitation 0.00 in 0.14 in 1.25 in (2003)
Month to date precipitation 2.04  
Sea Level Pressure  
Sea Level Pressure 30.12 in    
Wind  
Wind Speed 11 mph (SSE)    
Max Wind Speed 22 mph    
Max Gust Speed 30 mph    
Visibility 10 miles    
Events      
T = Trace of Precipitation, MM = Missing Value Source: NWS Daily Summary

Daily Weather History Graph

Daily Weather History Graph

Search for Another Location

Airport:

Trip Planner

Search our weather history database for the weather conditions in past years. The results will help you decide how hot, cold, wet, or windy it might be!

Date:

Astronomy

Apr. 19, 2014 Rise Set
Actual Time 6:29 AM CDT 7:58 PM CDT
Civil Twilight 6:00 AM CDT 8:27 PM CDT
Nautical Twilight 5:25 AM CDT 9:02 PM CDT
Astronomical Twilight 4:49 AM CDT 9:39 PM CDT
Moon No Moon Rise 9:47 AM CDT (4/19)
Length of Visible Light 14h 27m
Length of Day
13h 29m
Waning Gibbous, 78% of the Moon is Illuminated
Apr 19
Waning Gibbous
Apr 22
Last Quarter
Apr 29
New
May 6
First Quarter
May 14
Full

Hourly Weather History & Observations

Time (CDT) Temp. Windchill Dew Point Humidity Pressure Visibility Wind Dir Wind Speed Gust Speed Precip Events Conditions
12:15 AM 50.0 °F - 36.5 °F 60% 30.18 in 10.0 mi SE 10.4 mph - N/A   Clear
12:35 AM 50.7 °F - 36.1 °F 57% 30.18 in 10.0 mi SE 11.5 mph - N/A   Clear
12:55 AM 50.2 °F - 36.1 °F 59% 30.18 in 10.0 mi SE 12.7 mph - N/A   Clear
1:15 AM 49.5 °F - 36.0 °F 60% 30.18 in 10.0 mi SE 10.4 mph - N/A   Clear
1:35 AM 49.1 °F - 35.8 °F 60% 30.18 in 10.0 mi SE 10.4 mph - N/A   Clear
1:55 AM 48.7 °F - 35.6 °F 60% 30.18 in 10.0 mi SE 10.4 mph - N/A   Clear
2:15 AM 48.2 °F - 35.2 °F 61% 30.18 in 10.0 mi SE 10.4 mph - N/A   Clear
2:35 AM 47.8 °F - 35.1 °F 61% 30.18 in 10.0 mi SE 9.2 mph - N/A   Clear
2:55 AM 47.3 °F - 34.7 °F 62% 30.17 in 10.0 mi SE 9.2 mph - N/A   Clear
3:15 AM 47.5 °F - 34.3 °F 60% 30.16 in 10.0 mi SE 9.2 mph - N/A   Clear
3:35 AM 46.9 °F - 34.0 °F 61% 30.16 in 10.0 mi SE 8.1 mph - N/A   Clear
3:55 AM 46.2 °F 42.2 °F 33.8 °F 62% 30.16 in 10.0 mi SE 8.1 mph - N/A   Clear
4:15 AM 45.7 °F 41.5 °F 33.8 °F 63% 30.16 in 10.0 mi SE 8.1 mph - N/A   Clear
4:35 AM 46.0 °F 41.4 °F 33.8 °F 62% 30.15 in 10.0 mi SE 9.2 mph - N/A   Clear
4:55 AM 45.5 °F 41.3 °F 33.8 °F 64% 30.15 in 10.0 mi SE 8.1 mph - N/A   Clear
5:15 AM 44.8 °F 40.4 °F 34.0 °F 66% 30.15 in 10.0 mi SE 8.1 mph - N/A   Clear
5:35 AM 45.0 °F 40.1 °F 34.3 °F 66% 30.15 in 10.0 mi SE 9.2 mph - N/A   Clear
5:55 AM 45.1 °F 40.8 °F 34.7 °F 67% 30.15 in 10.0 mi SE 8.1 mph - N/A   Clear
6:15 AM 44.8 °F 40.4 °F 34.7 °F 68% 30.15 in 10.0 mi SE 8.1 mph - N/A   Clear
6:35 AM 44.6 °F 39.7 °F 35.1 °F 69% 30.15 in 10.0 mi SE 9.2 mph - N/A   Clear
6:55 AM 45.5 °F 40.8 °F 35.8 °F 69% 30.15 in 10.0 mi SE 9.2 mph - N/A   Clear
7:15 AM 46.9 °F - 36.5 °F 67% 30.16 in 10.0 mi SE 10.4 mph - N/A   Clear
7:35 AM 48.9 °F - 37.6 °F 65% 30.16 in 10.0 mi SE 12.7 mph - N/A   Clear
7:55 AM 51.1 °F - 38.7 °F 63% 30.17 in 10.0 mi SE 12.7 mph - N/A   Clear
8:15 AM 52.2 °F - 39.2 °F 61% 30.17 in 10.0 mi SE 11.5 mph - N/A   Clear
8:35 AM 53.2 °F - 39.9 °F 61% 30.17 in 10.0 mi SE 11.5 mph 16.1 mph N/A   Clear
8:55 AM 56.3 °F - 40.5 °F 55% 30.17 in 10.0 mi SE 17.3 mph - N/A   Clear
9:15 AM 58.3 °F - 40.8 °F 52% 30.16 in 10.0 mi SSE 13.8 mph 18.4 mph N/A   Clear
9:35 AM 59.9 °F - 41.0 °F 50% 30.16 in 10.0 mi SE 13.8 mph 18.4 mph N/A   Clear
9:55 AM 61.5 °F - 41.5 °F 48% 30.17 in 10.0 mi SE 12.7 mph - N/A   Clear
10:15 AM 63.9 °F - 41.7 °F 44% 30.17 in 10.0 mi SSE 9.2 mph - N/A   Clear
10:35 AM 65.3 °F - 41.5 °F 42% 30.17 in 10.0 mi SE 10.4 mph - N/A   Clear
10:55 AM 67.1 °F - 41.4 °F 39% 30.17 in 10.0 mi South 9.2 mph - N/A   Clear
11:15 AM 67.8 °F - 41.7 °F 39% 30.17 in 10.0 mi South 11.5 mph 19.6 mph N/A   Clear
11:35 AM 69.3 °F - 41.0 °F 36% 30.16 in 10.0 mi SSE 13.8 mph - N/A   Clear
12:15 PM 70.9 °F - 40.1 °F 33% 30.15 in 10.0 mi South 11.5 mph 25.3 mph N/A   Clear
12:35 PM 71.4 °F - 40.5 °F 33% 30.14 in 10.0 mi SSE 17.3 mph 23.0 mph N/A   Clear
12:55 PM 70.9 °F - 40.1 °F 33% 30.13 in 10.0 mi SSE 18.4 mph 23.0 mph N/A   Clear
1:15 PM 72.5 °F - 39.9 °F 31% 30.13 in 10.0 mi South 17.3 mph 21.9 mph N/A   Clear
1:35 PM 71.6 °F - 40.3 °F 32% 30.12 in 10.0 mi South 18.4 mph 23.0 mph N/A   Clear
1:55 PM 72.7 °F - 40.1 °F 31% 30.12 in 10.0 mi South 15.0 mph 24.2 mph N/A   Clear
2:15 PM 73.0 °F - 39.9 °F 30% 30.11 in 10.0 mi South 15.0 mph 25.3 mph N/A   Clear
2:35 PM 73.2 °F - 39.9 °F 30% 30.11 in 10.0 mi South 17.3 mph 26.5 mph N/A   Clear
2:55 PM 73.6 °F - 40.6 °F 30% 30.09 in 10.0 mi South 15.0 mph 23.0 mph N/A   Clear
3:15 PM 73.6 °F - 39.9 °F 30% 30.08 in 10.0 mi SSE 17.3 mph 23.0 mph N/A   Clear
3:35 PM 74.1 °F - 39.0 °F 28% 30.07 in 10.0 mi South 19.6 mph 29.9 mph N/A   Clear
3:55 PM 74.8 °F - 40.1 °F 29% 30.07 in 10.0 mi South 19.6 mph 26.5 mph N/A   Clear
4:15 PM 74.7 °F - 39.9 °F 29% 30.06 in 10.0 mi South 18.4 mph 25.3 mph N/A   Clear
4:35 PM 75.4 °F - 39.9 °F 28% 30.06 in 10.0 mi SSE 21.9 mph 25.3 mph N/A   Clear
4:55 PM 75.9 °F - 40.5 °F 28% 30.05 in 10.0 mi South 13.8 mph 26.5 mph N/A   Clear
5:15 PM 75.2 °F - 39.7 °F 28% 30.04 in 10.0 mi South 17.3 mph 26.5 mph N/A   Clear
5:35 PM 73.9 °F - 39.9 °F 29% 30.04 in 10.0 mi South 12.7 mph 21.9 mph N/A   Clear
5:55 PM 74.5 °F - 39.6 °F 28% 30.05 in 10.0 mi South 15.0 mph 21.9 mph N/A   Clear
6:15 PM 74.5 °F - 39.6 °F 28% 30.06 in 10.0 mi South 12.7 mph 21.9 mph N/A   Clear
6:35 PM 73.4 °F - 40.5 °F 30% 30.06 in 10.0 mi South 17.3 mph 24.2 mph N/A   Clear
6:55 PM 72.3 °F - 39.9 °F 31% 30.06 in 10.0 mi South 12.7 mph 20.7 mph N/A   Clear
7:15 PM 70.9 °F - 40.5 °F 33% 30.06 in 10.0 mi South 11.5 mph 18.4 mph N/A   Clear
7:35 PM 69.1 °F - 41.5 °F 37% 30.06 in 10.0 mi South 10.4 mph - N/A   Clear
7:55 PM 67.6 °F - 41.9 °F 39% 30.06 in 10.0 mi SSE 9.2 mph - N/A   Clear
8:15 PM 66.4 °F - 41.7 °F 41% 30.06 in 10.0 mi South 9.2 mph - N/A   Clear
8:35 PM 65.8 °F - 41.9 °F 42% 30.07 in 10.0 mi SSE 9.2 mph - N/A   Clear
8:55 PM 63.1 °F - 42.3 °F 46% 30.07 in 10.0 mi SSE 6.9 mph - N/A   Clear
9:15 PM 61.7 °F - 42.3 °F 49% 30.08 in 10.0 mi SSE 5.8 mph - N/A   Clear
9:35 PM 59.7 °F - 42.8 °F 54% 30.09 in 10.0 mi SSE 5.8 mph - N/A   Clear
9:55 PM 59.0 °F - 42.8 °F 55% 30.09 in 10.0 mi SSE 4.6 mph - N/A   Clear
10:15 PM 56.7 °F - 42.3 °F 59% 30.09 in 10.0 mi SSE 6.9 mph - N/A   Clear
10:35 PM 57.9 °F - 43.0 °F 58% 30.09 in 10.0 mi SSE 8.1 mph - N/A   Clear
10:55 PM 59.9 °F - 43.2 °F 54% 30.10 in 10.0 mi South 8.1 mph - N/A   Clear
11:15 PM 59.4 °F - 43.0 °F 55% 30.09 in 10.0 mi SSE 8.1 mph - N/A   Scattered Clouds
11:35 PM 60.4 °F - 43.0 °F 53% 30.09 in 10.0 mi SSE 10.4 mph - N/A   Mostly Cloudy
11:55 PM 58.8 °F - 43.3 °F 56% 30.08 in 10.0 mi SSE 6.9 mph - N/A   Scattered Clouds